• In Uzbekistan
  • List of Countries
  • For 7 days
  • Water Temperature
  • Satellite Maps
  • Weather Map
  • Weather Widgets
  • user-avatar
    Login

    Hourly Weather Konstantyna

    Today, 25 March, Saturday

    Time Temperature Precipitation Wind Pressure Humidity
    00:00 +8°C° 0 mm 2 mps 708 mmHg 86%
    01:00 +8°C° 0 mm 2 mps 708 mmHg 89%
    02:00 +8°C° 0 mm 2 mps 709 mmHg 91%
    03:00 +7°C° 0 mm 2 mps 709 mmHg 94%
    04:00 +8°C° 0 mm 1 mps 709 mmHg 93%
    05:00 +9°C° 0 mm 1 mps 710 mmHg 93%
    06:00 +9°C° 0 mm 1 mps 710 mmHg 92%
    07:00 +10°C° 0 mm 1 mps 711 mmHg 86%
    08:00 +11°C° 0 mm 1 mps 712 mmHg 81%
    09:00 +12°C° 0 mm 1 mps 712 mmHg 75%
    10:00 +13°C° 0 mm 1 mps 712 mmHg 72%
    11:00 +14°C° 0 mm 1 mps 712 mmHg 69%
    12:00 +14°C° 0 mm 2 mps 713 mmHg 66%
    13:00 +15°C° 0 mm 2 mps 712 mmHg 65%
    14:00 +15°C° 0 mm 2 mps 712 mmHg 63%
    15:00 +14°C° 0 mm 3 mps 711 mmHg 62%
    16:00 +13°C° 0 mm 2 mps 711 mmHg 71%
    17:00 +10°C° 0 mm 2 mps 711 mmHg 80%
    18:00 +8°C° 0 mm 2 mps 711 mmHg 89%
    19:00 +9°C° 0 mm 1 mps 712 mmHg 90%
    20:00 +8°C° 0 mm 1 mps 712 mmHg 91%
    21:00 +8°C° 0 mm 1 mps 712 mmHg 92%
    22:00 +7°C° 0 mm 1 mps 712 mmHg 92%
    23:00 +7°C° 0 mm 1 mps 712 mmHg 93%

    Tomorrow, 26 March, Sunday

    Time Temperature Precipitation Wind Pressure Humidity
    00:00 +7°C° 0 mm 1 mps 712 mmHg 93%
    01:00 +7°C° 0 mm 1 mps 712 mmHg 92%
    02:00 +8°C° 0 mm 1 mps 711 mmHg 91%
    03:00 +8°C° 0 mm 1 mps 711 mmHg 91%
    04:00 +9°C° 0 mm 1 mps 711 mmHg 91%
    05:00 +9°C° 0 mm 1 mps 711 mmHg 91%
    06:00 +9°C° 0 mm 1 mps 711 mmHg 91%
    07:00 +12°C° 0 mm 1 mps 711 mmHg 77%
    08:00 +15°C° 0 mm 1 mps 712 mmHg 62%
    09:00 +19°C° 0 mm 1 mps 712 mmHg 47%
    10:00 +21°C° 0 mm 1 mps 712 mmHg 40%
    11:00 +23°C° 0 mm 1 mps 712 mmHg 32%
    12:00 +25°C° 0 mm 1 mps 712 mmHg 24%
    13:00 +25°C° 0 mm 2 mps 711 mmHg 25%
    14:00 +25°C° 0 mm 2 mps 711 mmHg 26%
    15:00 +24°C° 0 mm 2 mps 710 mmHg 27%
    16:00 +20°C° 0 mm 2 mps 710 mmHg 40%
    17:00 +17°C° 0 mm 2 mps 709 mmHg 54%
    18:00 +13°C° 0 mm 2 mps 709 mmHg 68%
    19:00 +12°C° 0 mm 2 mps 709 mmHg 74%
    20:00 +11°C° 0 mm 1 mps 709 mmHg 81%
    21:00 +10°C° 0 mm 1 mps 710 mmHg 88%
    22:00 +10°C° 0 mm 1 mps 709 mmHg 87%
    23:00 +10°C° 0 mm 1 mps 709 mmHg 86%

    Day after tomorrow, 27 March, Monday

    Time Temperature Precipitation Wind Pressure Humidity
    00:00 +9°C° 0 mm 1 mps 709 mmHg 85%
    01:00 +9°C° 0 mm 1 mps 709 mmHg 84%
    02:00 +9°C° 0 mm 1 mps 708 mmHg 82%
    03:00 +9°C° 0 mm 1 mps 708 mmHg 81%
    04:00 +9°C° 0 mm 1 mps 708 mmHg 77%
    05:00 +10°C° 0 mm 1 mps 708 mmHg 74%
    06:00 +10°C° 0 mm 1 mps 709 mmHg 70%
    07:00 +14°C° 0 mm 1 mps 709 mmHg 58%
    08:00 +17°C° 0 mm 2 mps 710 mmHg 47%
    09:00 +21°C° 0 mm 2 mps 711 mmHg 35%
    10:00 +21°C° 0 mm 2 mps 712 mmHg 35%
    11:00 +22°C° 0 mm 3 mps 712 mmHg 35%
    12:00 +23°C° 0 mm 4 mps 712 mmHg 34%
    13:00 +22°C° 0 mm 4 mps 712 mmHg 37%
    14:00 +21°C° 0 mm 4 mps 712 mmHg 39%
    15:00 +21°C° 0 mm 4 mps 711 mmHg 42%
    16:00 +18°C° 0 mm 3 mps 711 mmHg 53%
    17:00 +14°C° 0 mm 3 mps 711 mmHg 64%
    18:00 +13°C° 0 mm 2 mps 711 mmHg 75%
    19:00 +10°C° 0 mm 2 mps 712 mmHg 81%
    20:00 +9°C° 0 mm 1 mps 712 mmHg 88%
    21:00 +8°C° 0 mm 1 mps 712 mmHg 94%
    22:00 +7°C° 0 mm 1 mps 712 mmHg 94%
    23:00 +7°C° 0 mm 1 mps 712 mmHg 94%

    28 March, Tuesday

    Time Temperature Precipitation Wind Pressure Humidity
    00:00 +7°C° 0 mm 1 mps 712 mmHg 94%
    01:00 +7°C° 0 mm 1 mps 712 mmHg 94%
    02:00 +6°C° 0 mm 1 mps 712 mmHg 94%
    03:00 +6°C° 0 mm 1 mps 712 mmHg 94%
    04:00 +6°C° 0 mm 1 mps 712 mmHg 93%
    05:00 +7°C° 0 mm 1 mps 712 mmHg 93%
    06:00 +7°C° 0 mm 1 mps 712 mmHg 93%
    07:00 +10°C° 0 mm 1 mps 713 mmHg 77%
    08:00 +14°C° 0 mm 1 mps 714 mmHg 60%
    09:00 +18°C° 0 mm 1 mps 715 mmHg 44%
    10:00 +18°C° 0 mm 2 mps 715 mmHg 40%
    11:00 +19°C° 0 mm 2 mps 715 mmHg 36%
    12:00 +20°C° 0 mm 3 mps 715 mmHg 31%
    13:00 +20°C° 0 mm 3 mps 715 mmHg 34%
    14:00 +19°C° 0 mm 4 mps 714 mmHg 37%
    15:00 +19°C° 0 mm 4 mps 714 mmHg 39%
    16:00 +15°C° 0 mm 4 mps 714 mmHg 52%
    17:00 +13°C° 0 mm 3 mps 714 mmHg 64%
    18:00 +10°C° 0 mm 2 mps 714 mmHg 77%
    19:00 +8°C° 0 mm 2 mps 715 mmHg 83%
    20:00 +8°C° 0 mm 1 mps 715 mmHg 89%
    21:00 +6°C° 0 mm 1 mps 715 mmHg 95%
    22:00 +6°C° 0 mm 1 mps 715 mmHg 95%
    23:00 +5°C° 0 mm 1 mps 715 mmHg 95%

    29 March, Wednesday

    Time Temperature Precipitation Wind Pressure Humidity
    00:00 +5°C° 0 mm 1 mps 715 mmHg 96%
    01:00 +5°C° 0 mm 1 mps 715 mmHg 96%
    02:00 +4°C° 0 mm 1 mps 715 mmHg 96%
    03:00 +4°C° 0 mm 1 mps 715 mmHg 95%
    04:00 +4°C° 0 mm 0 mps 715 mmHg 95%
    05:00 +4°C° 0 mm 0 mps 715 mmHg 94%
    06:00 +5°C° 0 mm 0 mps 716 mmHg 93%
    07:00 +8°C° 0 mm 0 mps 716 mmHg 79%
    08:00 +12°C° 0 mm 1 mps 717 mmHg 65%
    09:00 +16°C° 0 mm 1 mps 718 mmHg 52%
    10:00 +18°C° 0 mm 1 mps 717 mmHg 47%
    11:00 +18°C° 0 mm 2 mps 717 mmHg 42%
    12:00 +19°C° 0 mm 2 mps 717 mmHg 36%
    13:00 +19°C° 0 mm 3 mps 717 mmHg 39%
    14:00 +18°C° 0 mm 3 mps 716 mmHg 41%
    15:00 +18°C° 0 mm 3 mps 716 mmHg 43%
    16:00 +16°C° 0 mm 3 mps 716 mmHg 56%
    17:00 +13°C° 0 mm 2 mps 716 mmHg 69%
    18:00 +10°C° 0 mm 2 mps 716 mmHg 82%
    19:00 +9°C° 0 mm 1 mps 716 mmHg 87%
    20:00 +7°C° 0 mm 1 mps 716 mmHg 92%
    21:00 +4°C° 0 mm 0 mps 716 mmHg 97%
    22:00 +4°C° 0 mm 0 mps 716 mmHg 97%
    23:00 +5°C° 0 mm 1 mps 716 mmHg 96%

    30 March, Thursday

    Time Temperature Precipitation Wind Pressure Humidity
    00:00 +5°C° 0 mm 1 mps 716 mmHg 96%
    01:00 +5°C° 0 mm 1 mps 715 mmHg 97%
    02:00 +3°C° 0 mm 0 mps 715 mmHg 97%
    03:00 +3°C° 0 mm 0 mps 715 mmHg 97%
    04:00 +3°C° 0 mm 0 mps 715 mmHg 97%
    05:00 +4°C° 0 mm 0 mps 715 mmHg 96%
    06:00 +5°C° 0 mm 0 mps 715 mmHg 96%
    07:00 +8°C° 0 mm 0 mps 716 mmHg 82%
    08:00 +12°C° 0 mm 0 mps 717 mmHg 67%
    09:00 +18°C° 0 mm 1 mps 718 mmHg 53%
    10:00 +19°C° 0 mm 1 mps 717 mmHg 46%
    11:00 +20°C° 0 mm 1 mps 717 mmHg 40%
    12:00 +20°C° 0 mm 2 mps 717 mmHg 33%
    13:00 +20°C° 0 mm 2 mps 716 mmHg 34%
    14:00 +20°C° 0 mm 3 mps 716 mmHg 35%
    15:00 +20°C° 0 mm 3 mps 716 mmHg 37%
    16:00 +17°C° 0 mm 3 mps 715 mmHg 50%
    17:00 +14°C° 0 mm 2 mps 715 mmHg 63%
    18:00 +10°C° 0 mm 2 mps 715 mmHg 76%
    19:00 +9°C° 0 mm 2 mps 715 mmHg 80%
    20:00 +9°C° 0 mm 1 mps 715 mmHg 84%
    21:00 +9°C° 0 mm 1 mps 715 mmHg 88%
    22:00 +8°C° 0 mm 1 mps 715 mmHg 87%
    23:00 +8°C° 0 mm 1 mps 715 mmHg 86%
    Show more